Location: Vassar Physics Lab
(41.6843°N, 73.8954°W)
Time: 22:00:18
(UTC-04:00)

CZ-4B DEB - Visible Passes

Search period start: 16 October 2017 00:00
Search period end: 26 October 2017 00:00
Orbit: 840 x 863 km, 99.0° (Epoch: 16 October)

Date Brightness Start Highest point End Pass type
(mag) Time Alt. Az. Time Alt. Az. Time Alt. Az.
16 Oct 4.3 05:01:20 10° NNE 05:06:50 73° ESE 05:12:19 10° S visible
17 Oct 4.7 04:49:54 10° NNE 04:55:19 58° ESE 05:00:43 10° S visible
17 Oct 5.4 06:31:37 10° NNW 06:35:33 21° WNW 06:39:30 10° WSW visible
18 Oct 5.2 04:38:30 10° NNE 04:43:46 45° E 04:49:01 10° S visible
18 Oct 5.2 06:19:46 10° N 06:24:10 25° WNW 06:28:36 10° WSW visible
19 Oct 5.6 04:27:09 10° NNE 04:32:12 36° E 04:37:13 10° SSE visible
19 Oct 4.9 06:08:00 10° N 06:12:47 31° WNW 06:17:33 10° SW visible
20 Oct 6.0 04:15:54 10° NE 04:20:36 29° E 04:25:19 10° SSE visible
20 Oct 4.6 05:56:18 10° N 06:01:22 39° WNW 06:06:25 10° SW visible
21 Oct 6.3 04:04:44 10° NE 04:09:00 23° E 04:13:16 10° SE visible
21 Oct 4.4 05:44:39 10° N 05:49:55 49° WNW 05:55:12 10° SW visible
22 Oct 6.6 03:53:42 10° NE 03:57:23 18° E 04:01:02 10° SE visible
22 Oct 4.2 05:33:02 10° N 05:38:28 61° WNW 05:43:53 10° SSW visible
23 Oct 6.9 03:42:57 10° ENE 03:45:43 14° E 03:48:30 10° ESE visible
23 Oct 4.1 05:21:29 10° N 05:26:59 77° WNW 05:32:30 10° SSW visible
24 Oct 7.1 03:33:00 10° ENE 03:34:03 10° E 03:35:06 10° E visible
24 Oct 4.2 05:09:57 10° NNE 05:15:29 85° ESE 05:21:01 10° SSW visible
24 Oct 5.8 06:52:35 10° NNW 06:55:26 14° WNW 06:58:17 10° W visible
25 Oct 4.4 04:58:28 10° NNE 05:03:59 68° ESE 05:09:28 10° S visible
25 Oct 5.6 06:40:31 10° NNW 06:44:05 18° WNW 06:47:41 10° W visible
